Tracking 25648 objects as of 17-May-2022
HD Live streaming from Space Station
objects crossing your sky now

FLOCK 4V 2

Track FLOCK 4V 2 now!
10-day predictions
FLOCK 4V 2 is classified as:


NORAD ID: 46321
Int'l Code: 2020-061BB
Perigee: 527.5 km
Apogee: 529.6 km
Inclination: 97.5 °
Period: 95.1 minutes
Semi major axis: 6899 km
RCS: Unknown
Launch date: September 3, 2020
Source: United States (US)
Launch site: FRENCH GUIANA (FRGUI)
aabbcc
Your satellite tracking list
Your tracking list is empty




NASA's NSSDC Master Catalog

Two Line Element Set (TLE):
1 46321U 20061BB  22137.18787836  .00012942  00000-0  69882-3 0  9992
2 46321  97.4505 208.9969 0001508 292.5383  67.5689 15.14854127 93705
Source of the keplerian elements: AFSPC